000000,17.9152, 11 Nov 2015, 00:00:36
000030,17.9164, 11 Nov 2015, 00:01:06
000100,17.9173, 11 Nov 2015, 00:01:36
000130,17.9182, 11 Nov 2015, 00:02:06
000200,17.9178, 11 Nov 2015, 00:02:36
000230,17.9186, 11 Nov 2015, 00:03:06
000300,17.9193, 11 Nov 2015, 00:03:36
000330,17.9188, 11 Nov 2015, 00:04:05
000400,17.9188, 11 Nov 2015, 00:04:36
000430,17.9188, 11 Nov 2015, 00:05:06
000500,17.9186, 11 Nov 2015, 00:05:36
000530,17.9196, 11 Nov 2015, 00:06:06
000600,17.9198, 11 Nov 2015, 00:06:36
000630,17.9201, 11 Nov 2015, 00:07:06
000700,17.9191, 11 Nov 2015, 00:07:36
000730,17.9212, 11 Nov 2015, 00:08:06
000800,17.9249, 11 Nov 2015, 00:08:37
000830,17.9296, 11 Nov 2015, 00:09:06
000900,17.9355, 11 Nov 2015, 00:09:36
000930,17.9393, 11 Nov 2015, 00:10:06
001000,17.9387, 11 Nov 2015, 00:10:36
001030,17.9364, 11 Nov 2015, 00:11:07
001100,17.933, 11 Nov 2015, 00:11:37
001130,17.9297, 11 Nov 2015, 00:12:07
001200,17.9271, 11 Nov 2015, 00:12:36
001230,17.9246, 11 Nov 2015, 00:13:07
001300,17.923, 11 Nov 2015, 00:13:37
001330,17.9214, 11 Nov 2015, 00:14:07
001400,17.9211, 11 Nov 2015, 00:14:36
001430,17.9207, 11 Nov 2015, 00:15:06
001500,17.9201, 11 Nov 2015, 00:15:37
001530,17.9207, 11 Nov 2015, 00:16:07
001600,17.9214, 11 Nov 2015, 00:16:37
001630,17.9221, 11 Nov 2015, 00:17:06
001700,17.9222, 11 Nov 2015, 00:17:37
001730,17.9228, 11 Nov 2015, 00:18:07
001800,17.9232, 11 Nov 2015, 00:18:37
001830,17.9245, 11 Nov 2015, 00:19:06
001900,17.9258, 11 Nov 2015, 00:19:37
001930,17.9275, 11 Nov 2015, 00:20:07
002000,17.929, 11 Nov 2015, 00:20:37
002030,17.9309, 11 Nov 2015, 00:21:06
002100,17.9315, 11 Nov 2015, 00:21:37
002130,17.9317, 11 Nov 2015, 00:22:07
002200,17.9323, 11 Nov 2015, 00:22:37
002230,17.9325, 11 Nov 2015, 00:23:06
002300,17.9326, 11 Nov 2015, 00:23:36
002330,17.9329, 11 Nov 2015, 00:24:07
002400,17.9329, 11 Nov 2015, 00:24:37
002430,17.9332, 11 Nov 2015, 00:25:06
002500,17.9322, 11 Nov 2015, 00:25:36
002530,17.9321, 11 Nov 2015, 00:26:07
002600,17.9319, 11 Nov 2015, 00:26:37
002630,17.9317, 11 Nov 2015, 00:27:06
002700,17.9314, 11 Nov 2015, 00:27:36
002730,17.9319, 11 Nov 2015, 00:28:07
002800,17.9319, 11 Nov 2015, 00:28:37
002830,17.9324, 11 Nov 2015, 00:29:06
002900,17.9329, 11 Nov 2015, 00:29:36
002930,17.9337, 11 Nov 2015, 00:30:07
003000,17.9339, 11 Nov 2015, 00:30:37
003030,17.9352, 11 Nov 2015, 00:31:06
003100,17.9358, 11 Nov 2015, 00:31:36
003130,17.9367, 11 Nov 2015, 00:32:06
003200,17.9362, 11 Nov 2015, 00:32:37
003230,17.9362, 11 Nov 2015, 00:33:06
003300,17.9367, 11 Nov 2015, 00:33:36
003330,17.9372, 11 Nov 2015, 00:34:06
003400,17.9374, 11 Nov 2015, 00:34:37
003430,17.9379, 11 Nov 2015, 00:35:06
003500,17.9383, 11 Nov 2015, 00:35:36
003530,17.9396, 11 Nov 2015, 00:36:06
003600,17.9407, 11 Nov 2015, 00:36:37
003630,17.9418, 11 Nov 2015, 00:37:06
003700,17.9424, 11 Nov 2015, 00:37:36
003730,17.943, 11 Nov 2015, 00:38:06
003800,17.9442, 11 Nov 2015, 00:38:37
003830,17.9447, 11 Nov 2015, 00:39:06
003900,17.9457, 11 Nov 2015, 00:39:36
003930,17.9464, 11 Nov 2015, 00:40:06
004000,17.9479, 11 Nov 2015, 00:40:37
004030,17.9499, 11 Nov 2015, 00:41:06
004100,17.951, 11 Nov 2015, 00:41:36
004130,17.9526, 11 Nov 2015, 00:42:06
004200,17.9541, 11 Nov 2015, 00:42:36
004230,17.956, 11 Nov 2015, 00:43:06
004300,17.9574, 11 Nov 2015, 00:43:36
004330,17.9585, 11 Nov 2015, 00:44:06
004400,17.959, 11 Nov 2015, 00:44:36
004430,17.96, 11 Nov 2015, 00:45:06
004500,17.9609, 11 Nov 2015, 00:45:36
004530,17.9612, 11 Nov 2015, 00:46:06
004600,17.9618, 11 Nov 2015, 00:46:36
004630,17.9624, 11 Nov 2015, 00:47:06
004700,17.9626, 11 Nov 2015, 00:47:36
004730,17.962, 11 Nov 2015, 00:48:06
004800,17.9608, 11 Nov 2015, 00:48:36
004830,17.9597, 11 Nov 2015, 00:49:06
004900,17.958, 11 Nov 2015, 00:49:36
004930,17.9559, 11 Nov 2015, 00:50:06
005000,17.9533, 11 Nov 2015, 00:50:36
005030,17.9511, 11 Nov 2015, 00:51:07
005100,17.9483, 11 Nov 2015, 00:51:37
005130,17.9451, 11 Nov 2015, 00:52:07
005200,17.9414, 11 Nov 2015, 00:52:37
005230,17.9368, 11 Nov 2015, 00:53:06
005300,17.9324, 11 Nov 2015, 00:53:37
005330,17.9286, 11 Nov 2015, 00:54:07
005400,17.9252, 11 Nov 2015, 00:54:37
005430,17.9228, 11 Nov 2015, 00:55:06
005500,17.921, 11 Nov 2015, 00:55:37
005530,17.9199, 11 Nov 2015, 00:56:07
005600,17.9184, 11 Nov 2015, 00:56:37
005630,17.9165, 11 Nov 2015, 00:57:06
005700,17.9131, 11 Nov 2015, 00:57:37
005730,17.9076, 11 Nov 2015, 00:58:07
005800,17.902, 11 Nov 2015, 00:58:37
005830,17.8965, 11 Nov 2015, 00:59:06
005900,17.8911, 11 Nov 2015, 00:59:37
005930,17.8871, 11 Nov 2015, 01:00:07
010000,17.8845, 11 Nov 2015, 01:00:37
010030,17.88, 11 Nov 2015, 01:01:06
010100,17.8767, 11 Nov 2015, 01:01:36
010130,17.8741, 11 Nov 2015, 01:02:07
010200,17.8708, 11 Nov 2015, 01:02:37
010230,17.8684, 11 Nov 2015, 01:03:06
010300,17.8656, 11 Nov 2015, 01:03:36
010330,17.8636, 11 Nov 2015, 01:04:07
010400,17.8623, 11 Nov 2015, 01:04:37
010430,17.8606, 11 Nov 2015, 01:05:07
010500,17.8594, 11 Nov 2015, 01:05:36
010530,17.8585, 11 Nov 2015, 01:06:06
010600,17.8571, 11 Nov 2015, 01:06:37
010630,17.8562, 11 Nov 2015, 01:07:07
010700,17.8548, 11 Nov 2015, 01:07:36
010730,17.8529, 11 Nov 2015, 01:08:06
010800,17.8518, 11 Nov 2015, 01:08:37
010830,17.8506, 11 Nov 2015, 01:09:07
010900,17.8486, 11 Nov 2015, 01:09:37
010930,17.848, 11 Nov 2015, 01:10:06
011000,17.8469, 11 Nov 2015, 01:10:36
011030,17.8455, 11 Nov 2015, 01:11:07
011100,17.844, 11 Nov 2015, 01:11:36
011130,17.8437, 11 Nov 2015, 01:12:06
011200,17.8427, 11 Nov 2015, 01:12:36
011230,17.8417, 11 Nov 2015, 01:13:07
011300,17.841, 11 Nov 2015, 01:13:36
011330,17.8413, 11 Nov 2015, 01:14:06
011400,17.8408, 11 Nov 2015, 01:14:36
011430,17.8411, 11 Nov 2015, 01:15:07
011500,17.8407, 11 Nov 2015, 01:15:36
011530,17.8406, 11 Nov 2015, 01:16:06
011600,17.8409, 11 Nov 2015, 01:16:36
011630,17.8405, 11 Nov 2015, 01:17:07
011700,17.8406, 11 Nov 2015, 01:17:37
011730,17.8408, 11 Nov 2015, 01:18:06
011800,17.8405, 11 Nov 2015, 01:18:36
011830,17.8406, 11 Nov 2015, 01:19:06
011900,17.8413, 11 Nov 2015, 01:19:37
011930,17.8415, 11 Nov 2015, 01:20:06
012000,17.8424, 11 Nov 2015, 01:20:36
012030,17.8426, 11 Nov 2015, 01:21:06
012100,17.8436, 11 Nov 2015, 01:21:36
012130,17.8442, 11 Nov 2015, 01:22:06
012200,17.8447, 11 Nov 2015, 01:22:36
012230,17.8443, 11 Nov 2015, 01:23:06
012300,17.8443, 11 Nov 2015, 01:23:36
012330,17.8441, 11 Nov 2015, 01:24:06
012400,17.8436, 11 Nov 2015, 01:24:36
012430,17.8434, 11 Nov 2015, 01:25:06
012500,17.8439, 11 Nov 2015, 01:25:37
012530,17.8437, 11 Nov 2015, 01:26:06
012600,17.8427, 11 Nov 2015, 01:26:36
012630,17.8435, 11 Nov 2015, 01:27:06
012700,17.8435, 11 Nov 2015, 01:27:36
012730,17.8431, 11 Nov 2015, 01:28:06
012800,17.8434, 11 Nov 2015, 01:28:36
012830,17.8427, 11 Nov 2015, 01:29:06
012900,17.8423, 11 Nov 2015, 01:29:36
012930,17.842, 11 Nov 2015, 01:30:06
013000,17.8414, 11 Nov 2015, 01:30:36
013030,17.8416, 11 Nov 2015, 01:31:07
013100,17.8416, 11 Nov 2015, 01:31:36
013130,17.8417, 11 Nov 2015, 01:32:07
013200,17.8408, 11 Nov 2015, 01:32:37
013230,17.8405, 11 Nov 2015, 01:33:07
013300,17.8396, 11 Nov 2015, 01:33:36
013330,17.8393, 11 Nov 2015, 01:34:07
013400,17.8388, 11 Nov 2015, 01:34:37
013430,17.8378, 11 Nov 2015, 01:35:07
013500,17.838, 11 Nov 2015, 01:35:37
013530,17.8379, 11 Nov 2015, 01:36:07
013600,17.8375, 11 Nov 2015, 01:36:37
013630,17.8373, 11 Nov 2015, 01:37:07
013700,17.8375, 11 Nov 2015, 01:37:37
013730,17.8374, 11 Nov 2015, 01:38:06
013800,17.837, 11 Nov 2015, 01:38:37
013830,17.8377, 11 Nov 2015, 01:39:07
013900,17.8372, 11 Nov 2015, 01:39:37
013930,17.838, 11 Nov 2015, 01:40:06
014000,17.8378, 11 Nov 2015, 01:40:37
014030,17.8376, 11 Nov 2015, 01:41:07
014100,17.8389, 11 Nov 2015, 01:41:36
014130,17.8394, 11 Nov 2015, 01:42:06
014200,17.8396, 11 Nov 2015, 01:42:37
014230,17.8397, 11 Nov 2015, 01:43:07
014300,17.8401, 11 Nov 2015, 01:43:36
014330,17.8399, 11 Nov 2015, 01:44:06
014400,17.8405, 11 Nov 2015, 01:44:37
014430,17.8407, 11 Nov 2015, 01:45:07
014500,17.8408, 11 Nov 2015, 01:45:36
014530,17.8409, 11 Nov 2015, 01:46:06
014600,17.8408, 11 Nov 2015, 01:46:37
014630,17.8406, 11 Nov 2015, 01:47:07
014700,17.8406, 11 Nov 2015, 01:47:37
014730,17.8408, 11 Nov 2015, 01:48:06
014800,17.8414, 11 Nov 2015, 01:48:37
014830,17.8422, 11 Nov 2015, 01:49:07
014900,17.8424, 11 Nov 2015, 01:49:37
014930,17.8433, 11 Nov 2015, 01:50:06
015000,17.8437, 11 Nov 2015, 01:50:36
015030,17.8445, 11 Nov 2015, 01:51:07
015100,17.8437, 11 Nov 2015, 01:51:36
015130,17.8435, 11 Nov 2015, 01:52:06
015200,17.8433, 11 Nov 2015, 01:52:36
015230,17.8438, 11 Nov 2015, 01:53:07
015300,17.8457, 11 Nov 2015, 01:53:36
015330,17.8464, 11 Nov 2015, 01:54:06
015400,17.8478, 11 Nov 2015, 01:54:36
015430,17.8484, 11 Nov 2015, 01:55:07
015500,17.8502, 11 Nov 2015, 01:55:36
015530,17.8519, 11 Nov 2015, 01:56:06
015600,17.8526, 11 Nov 2015, 01:56:36
015630,17.8532, 11 Nov 2015, 01:57:07
015700,17.8532, 11 Nov 2015, 01:57:36
015730,17.8532, 11 Nov 2015, 01:58:06
015800,17.8521, 11 Nov 2015, 01:58:36
015830,17.8514, 11 Nov 2015, 01:59:07
015900,17.8497, 11 Nov 2015, 01:59:37
015930,17.848, 11 Nov 2015, 02:00:06
020000,17.8467, 11 Nov 2015, 02:00:36
020030,17.8458, 11 Nov 2015, 02:01:06
020100,17.8436, 11 Nov 2015, 02:01:36
020130,17.8416, 11 Nov 2015, 02:02:06
020200,17.8395, 11 Nov 2015, 02:02:36
020230,17.8378, 11 Nov 2015, 02:03:06
020300,17.8351, 11 Nov 2015, 02:03:37
020330,17.8336, 11 Nov 2015, 02:04:06
020400,17.8314, 11 Nov 2015, 02:04:36
020430,17.8295, 11 Nov 2015, 02:05:06
020500,17.827, 11 Nov 2015, 02:05:37
020530,17.8243, 11 Nov 2015, 02:06:06
020600,17.8213, 11 Nov 2015, 02:06:36
020630,17.8183, 11 Nov 2015, 02:07:06
020700,17.8144, 11 Nov 2015, 02:07:36
020730,17.8106, 11 Nov 2015, 02:08:06
020800,17.8059, 11 Nov 2015, 02:08:36
020830,17.8012, 11 Nov 2015, 02:09:06
020900,17.7958, 11 Nov 2015, 02:09:36
020930,17.7904, 11 Nov 2015, 02:10:07
021000,17.7843, 11 Nov 2015, 02:10:36
021030,17.7767, 11 Nov 2015, 02:11:07
021100,17.7692, 11 Nov 2015, 02:11:37
021130,17.7611, 11 Nov 2015, 02:12:06
021200,17.7521, 11 Nov 2015, 02:12:37
021230,17.7425, 11 Nov 2015, 02:13:07
021300,17.7335, 11 Nov 2015, 02:13:37
021330,17.7255, 11 Nov 2015, 02:14:06
021400,17.7166, 11 Nov 2015, 02:14:37
021430,17.7074, 11 Nov 2015, 02:15:07
021500,17.699, 11 Nov 2015, 02:15:37
021530,17.6884, 11 Nov 2015, 02:16:07
021600,17.677, 11 Nov 2015, 02:16:37
021630,17.665, 11 Nov 2015, 02:17:07
021700,17.6529, 11 Nov 2015, 02:17:37
021730,17.6404, 11 Nov 2015, 02:18:07
021800,17.6292, 11 Nov 2015, 02:18:36
021830,17.6179, 11 Nov 2015, 02:19:07
021900,17.6047, 11 Nov 2015, 02:19:37
021930,17.5861, 11 Nov 2015, 02:20:07
022000,17.5659, 11 Nov 2015, 02:20:36
022030,17.5421, 11 Nov 2015, 02:21:07
022100,17.5135, 11 Nov 2015, 02:21:37
022130,17.4858, 11 Nov 2015, 02:22:07
022200,17.4613, 11 Nov 2015, 02:22:36
022230,17.4395, 11 Nov 2015, 02:23:07
022300,17.4211, 11 Nov 2015, 02:23:37
022330,17.4057, 11 Nov 2015, 02:24:07
022400,17.3935, 11 Nov 2015, 02:24:36
022430,17.3846, 11 Nov 2015, 02:25:06
022500,17.3776, 11 Nov 2015, 02:25:37
022530,17.3712, 11 Nov 2015, 02:26:07
022600,17.3665, 11 Nov 2015, 02:26:36
022630,17.363, 11 Nov 2015, 02:27:06
022700,17.3605, 11 Nov 2015, 02:27:37
022730,17.3584, 11 Nov 2015, 02:28:07
022800,17.3565, 11 Nov 2015, 02:28:37
022830,17.3564, 11 Nov 2015, 02:29:06
022900,17.356, 11 Nov 2015, 02:29:36
022930,17.3575, 11 Nov 2015, 02:30:07
023000,17.3578, 11 Nov 2015, 02:30:37
023030,17.357, 11 Nov 2015, 02:31:06
023100,17.3551, 11 Nov 2015, 02:31:36
023130,17.3534, 11 Nov 2015, 02:32:07
023200,17.3495, 11 Nov 2015, 02:32:37
023230,17.3476, 11 Nov 2015, 02:33:06
023300,17.3493, 11 Nov 2015, 02:33:36
023330,17.3568, 11 Nov 2015, 02:34:07
023400,17.3683, 11 Nov 2015, 02:34:37
023430,17.3799, 11 Nov 2015, 02:35:06
023500,17.3872, 11 Nov 2015, 02:35:36
023530,17.3931, 11 Nov 2015, 02:36:06
023600,17.3977, 11 Nov 2015, 02:36:37
023630,17.4024, 11 Nov 2015, 02:37:06
023700,17.4094, 11 Nov 2015, 02:37:36
023730,17.4232, 11 Nov 2015, 02:38:06
023800,17.4461, 11 Nov 2015, 02:38:37
023830,17.4754, 11 Nov 2015, 02:39:07
023900,17.5066, 11 Nov 2015, 02:39:36
023930,17.5382, 11 Nov 2015, 02:40:06
024000,17.565, 11 Nov 2015, 02:40:37
024030,17.5882, 11 Nov 2015, 02:41:06
024100,17.6118, 11 Nov 2015, 02:41:36
024130,17.6327, 11 Nov 2015, 02:42:06
024200,17.6506, 11 Nov 2015, 02:42:36
024230,17.6678, 11 Nov 2015, 02:43:06
024300,17.6828, 11 Nov 2015, 02:43:36
024330,17.695, 11 Nov 2015, 02:44:06
024400,17.7086, 11 Nov 2015, 02:44:36
024430,17.7193, 11 Nov 2015, 02:45:06
024500,17.7288, 11 Nov 2015, 02:45:36
024530,17.7371, 11 Nov 2015, 02:46:06
024600,17.747, 11 Nov 2015, 02:46:36
024630,17.7581, 11 Nov 2015, 02:47:07
024700,17.7708, 11 Nov 2015, 02:47:36
024730,17.7842, 11 Nov 2015, 02:48:06
024800,17.797, 11 Nov 2015, 02:48:36
024830,17.8053, 11 Nov 2015, 02:49:07
024900,17.8106, 11 Nov 2015, 02:49:36
024930,17.8151, 11 Nov 2015, 02:50:06
025000,17.8192, 11 Nov 2015, 02:50:36
025030,17.8242, 11 Nov 2015, 02:51:05
025100,17.8311, 11 Nov 2015, 02:51:36
025130,17.8391, 11 Nov 2015, 02:52:06
025200,17.846, 11 Nov 2015, 02:52:36
025230,17.8517, 11 Nov 2015, 02:53:05
025300,17.8568, 11 Nov 2015, 02:53:36
025330,17.8589, 11 Nov 2015, 02:54:06
025400,17.8608, 11 Nov 2015, 02:54:36
025430,17.8641, 11 Nov 2015, 02:55:05
025500,17.8671, 11 Nov 2015, 02:55:36
025530,17.8717, 11 Nov 2015, 02:56:06
025600,17.8759, 11 Nov 2015, 02:56:36
025630,17.8796, 11 Nov 2015, 02:57:05
025700,17.8812, 11 Nov 2015, 02:57:36
025730,17.8806, 11 Nov 2015, 02:58:06
025800,17.8772, 11 Nov 2015, 02:58:36
025830,17.8728, 11 Nov 2015, 02:59:06
025900,17.8673, 11 Nov 2015, 02:59:36
025930,17.8614, 11 Nov 2015, 03:00:06
030000,17.8554, 11 Nov 2015, 03:00:36
030030,17.8496, 11 Nov 2015, 03:01:06
030100,17.8447, 11 Nov 2015, 03:01:37
030130,17.8408, 11 Nov 2015, 03:02:07
030200,17.8393, 11 Nov 2015, 03:02:37
030230,17.8397, 11 Nov 2015, 03:03:06
030300,17.84, 11 Nov 2015, 03:03:36
030330,17.8412, 11 Nov 2015, 03:04:07
030400,17.8408, 11 Nov 2015, 03:04:37
030430,17.8399, 11 Nov 2015, 03:05:07
030500,17.8389, 11 Nov 2015, 03:05:36
030530,17.8381, 11 Nov 2015, 03:06:07
030600,17.8364, 11 Nov 2015, 03:06:37
030630,17.8318, 11 Nov 2015, 03:07:07
030700,17.8266, 11 Nov 2015, 03:07:36
030730,17.8178, 11 Nov 2015, 03:08:06
030800,17.8074, 11 Nov 2015, 03:08:37
030830,17.7953, 11 Nov 2015, 03:09:07
030900,17.7824, 11 Nov 2015, 03:09:37
030930,17.7731, 11 Nov 2015, 03:10:06
031000,17.768, 11 Nov 2015, 03:10:37
031030,17.7677, 11 Nov 2015, 03:11:07
031100,17.7676, 11 Nov 2015, 03:11:36
031130,17.769, 11 Nov 2015, 03:12:06
031200,17.7714, 11 Nov 2015, 03:12:36
031230,17.7757, 11 Nov 2015, 03:13:07
031300,17.7827, 11 Nov 2015, 03:13:36
031330,17.7922, 11 Nov 2015, 03:14:06
031400,17.8045, 11 Nov 2015, 03:14:36
031430,17.8226, 11 Nov 2015, 03:15:07
031500,17.8421, 11 Nov 2015, 03:15:37
031530,17.8625, 11 Nov 2015, 03:16:06
031600,17.888, 11 Nov 2015, 03:16:36
031630,17.918, 11 Nov 2015, 03:17:07
031700,17.9545, 11 Nov 2015, 03:17:37
031730,17.9946, 11 Nov 2015, 03:18:06
031800,18.0389, 11 Nov 2015, 03:18:36
031830,18.0835, 11 Nov 2015, 03:19:06
031900,18.124, 11 Nov 2015, 03:19:37
031930,18.1581, 11 Nov 2015, 03:20:07
032000,18.1848, 11 Nov 2015, 03:20:36
032030,18.2069, 11 Nov 2015, 03:21:06
032100,18.2238, 11 Nov 2015, 03:21:37
032130,18.2365, 11 Nov 2015, 03:22:06
032200,18.2484, 11 Nov 2015, 03:22:36
032230,18.2577, 11 Nov 2015, 03:23:06
032300,18.2653, 11 Nov 2015, 03:23:36
032330,18.2711, 11 Nov 2015, 03:24:07
032400,18.2749, 11 Nov 2015, 03:24:36
032430,18.278, 11 Nov 2015, 03:25:06
032500,18.2838, 11 Nov 2015, 03:25:36
032530,18.2917, 11 Nov 2015, 03:26:07
032600,18.3017, 11 Nov 2015, 03:26:36
032630,18.3113, 11 Nov 2015, 03:27:06
032700,18.3192, 11 Nov 2015, 03:27:36
032730,18.3266, 11 Nov 2015, 03:28:06
032800,18.3347, 11 Nov 2015, 03:28:36
032830,18.3427, 11 Nov 2015, 03:29:06
032900,18.3513, 11 Nov 2015, 03:29:36
032930,18.3596, 11 Nov 2015, 03:30:06
033000,18.3685, 11 Nov 2015, 03:30:37
033030,18.3758, 11 Nov 2015, 03:31:06
033100,18.3812, 11 Nov 2015, 03:31:36
033130,18.3856, 11 Nov 2015, 03:32:06
033200,18.3875, 11 Nov 2015, 03:32:35
033230,18.3876, 11 Nov 2015, 03:33:06
033300,18.385, 11 Nov 2015, 03:33:36
033330,18.3808, 11 Nov 2015, 03:34:06
033400,18.3752, 11 Nov 2015, 03:34:36
033430,18.3681, 11 Nov 2015, 03:35:06
033500,18.3594, 11 Nov 2015, 03:35:36
033530,18.3502, 11 Nov 2015, 03:36:06
033600,18.3399, 11 Nov 2015, 03:36:36
033630,18.3302, 11 Nov 2015, 03:37:06
033700,18.3198, 11 Nov 2015, 03:37:36
033730,18.3089, 11 Nov 2015, 03:38:06
033800,18.2971, 11 Nov 2015, 03:38:36
033830,18.284, 11 Nov 2015, 03:39:05
033900,18.271, 11 Nov 2015, 03:39:36
033930,18.2558, 11 Nov 2015, 03:40:06
034000,18.2378, 11 Nov 2015, 03:40:36
034030,18.2189, 11 Nov 2015, 03:41:06
034100,18.1978, 11 Nov 2015, 03:41:37
034130,18.1783, 11 Nov 2015, 03:42:07
034200,18.1568, 11 Nov 2015, 03:42:37
034230,18.1337, 11 Nov 2015, 03:43:06
034300,18.1089, 11 Nov 2015, 03:43:36
034330,18.0854, 11 Nov 2015, 03:44:07
034400,18.0629, 11 Nov 2015, 03:44:37
034430,18.0429, 11 Nov 2015, 03:45:07
034500,18.0261, 11 Nov 2015, 03:45:36
034530,18.012, 11 Nov 2015, 03:46:07
034600,17.9991, 11 Nov 2015, 03:46:37
034630,17.988, 11 Nov 2015, 03:47:07
034700,17.9764, 11 Nov 2015, 03:47:36
034730,17.9633, 11 Nov 2015, 03:48:06
034800,17.9493, 11 Nov 2015, 03:48:37
034830,17.9356, 11 Nov 2015, 03:49:07
034900,17.922, 11 Nov 2015, 03:49:37
034930,17.9101, 11 Nov 2015, 03:50:06
035000,17.9, 11 Nov 2015, 03:50:37
035030,17.8929, 11 Nov 2015, 03:51:07
035100,17.8876, 11 Nov 2015, 03:51:36
035130,17.8848, 11 Nov 2015, 03:52:06
035200,17.8835, 11 Nov 2015, 03:52:37
035230,17.8847, 11 Nov 2015, 03:53:07
035300,17.8863, 11 Nov 2015, 03:53:36
035330,17.8882, 11 Nov 2015, 03:54:06
035400,17.8884, 11 Nov 2015, 03:54:37
035430,17.8882, 11 Nov 2015, 03:55:07
035500,17.8895, 11 Nov 2015, 03:55:36
035530,17.8904, 11 Nov 2015, 03:56:06
035600,17.8918, 11 Nov 2015, 03:56:37
035630,17.8924, 11 Nov 2015, 03:57:07
035700,17.8936, 11 Nov 2015, 03:57:36
035730,17.8962, 11 Nov 2015, 03:58:06
035800,17.9001, 11 Nov 2015, 03:58:37
035830,17.9049, 11 Nov 2015, 03:59:07
035900,17.9113, 11 Nov 2015, 03:59:36
035930,17.9178, 11 Nov 2015, 04:00:06
040000,17.9236, 11 Nov 2015, 04:00:36
040030,17.9285, 11 Nov 2015, 04:01:07
040100,17.9336, 11 Nov 2015, 04:01:36
040130,17.9381, 11 Nov 2015, 04:02:06
040200,17.9436, 11 Nov 2015, 04:02:36
040230,17.9497, 11 Nov 2015, 04:03:07
040300,17.9548, 11 Nov 2015, 04:03:36
040330,17.9601, 11 Nov 2015, 04:04:06
040400,17.9656, 11 Nov 2015, 04:04:36
040430,17.97, 11 Nov 2015, 04:05:06
040500,17.9731, 11 Nov 2015, 04:05:36
040530,17.9764, 11 Nov 2015, 04:06:06
040600,17.9799, 11 Nov 2015, 04:06:36
040630,17.9825, 11 Nov 2015, 04:07:06
040700,17.9851, 11 Nov 2015, 04:07:37
040730,17.9869, 11 Nov 2015, 04:08:06
040800,17.9884, 11 Nov 2015, 04:08:36
040830,17.9891, 11 Nov 2015, 04:09:06
040900,17.9901, 11 Nov 2015, 04:09:37
040930,17.9907, 11 Nov 2015, 04:10:06
041000,17.9909, 11 Nov 2015, 04:10:36
041030,17.9914, 11 Nov 2015, 04:11:06
041100,17.9909, 11 Nov 2015, 04:11:36
041130,17.9908, 11 Nov 2015, 04:12:06
041200,17.9898, 11 Nov 2015, 04:12:36
041230,17.9925, 11 Nov 2015, 04:13:06
041300,18.0007, 11 Nov 2015, 04:13:36
041330,18.0087, 11 Nov 2015, 04:14:06
041400,18.0175, 11 Nov 2015, 04:14:36
041430,18.0243, 11 Nov 2015, 04:15:06
041500,18.0273, 11 Nov 2015, 04:15:36
041530,18.0289, 11 Nov 2015, 04:16:06
041600,18.0286, 11 Nov 2015, 04:16:35
041630,18.0291, 11 Nov 2015, 04:17:06
041700,18.0289, 11 Nov 2015, 04:17:36
041730,18.028, 11 Nov 2015, 04:18:06
041800,18.0278, 11 Nov 2015, 04:18:36
041830,18.0287, 11 Nov 2015, 04:19:05
041900,18.029, 11 Nov 2015, 04:19:36
041930,18.0296, 11 Nov 2015, 04:20:06
042000,18.0301, 11 Nov 2015, 04:20:36
042030,18.0304, 11 Nov 2015, 04:21:06
042100,18.0317, 11 Nov 2015, 04:21:37
042130,18.0325, 11 Nov 2015, 04:22:07
042200,18.0341, 11 Nov 2015, 04:22:37
042230,18.036, 11 Nov 2015, 04:23:07
042300,18.0375, 11 Nov 2015, 04:23:36
042330,18.039, 11 Nov 2015, 04:24:07
042400,18.0395, 11 Nov 2015, 04:24:37
042430,18.04, 11 Nov 2015, 04:25:07
042500,18.0399, 11 Nov 2015, 04:25:37
042530,18.0402, 11 Nov 2015, 04:26:06
042600,18.0405, 11 Nov 2015, 04:26:37
042630,18.042, 11 Nov 2015, 04:27:07
042700,18.0444, 11 Nov 2015, 04:27:37
042730,18.0457, 11 Nov 2015, 04:28:07
042800,18.0457, 11 Nov 2015, 04:28:36
042830,18.0471, 11 Nov 2015, 04:29:07
042900,18.0482, 11 Nov 2015, 04:29:37
042930,18.0503, 11 Nov 2015, 04:30:07
043000,18.052, 11 Nov 2015, 04:30:37
043030,18.0535, 11 Nov 2015, 04:31:06
043100,18.0553, 11 Nov 2015, 04:31:37
043130,18.0559, 11 Nov 2015, 04:32:07
043200,18.0564, 11 Nov 2015, 04:32:36
043230,18.0564, 11 Nov 2015, 04:33:06
043300,18.0561, 11 Nov 2015, 04:33:36
043330,18.0553, 11 Nov 2015, 04:34:07
043400,18.0548, 11 Nov 2015, 04:34:37
043430,18.0542, 11 Nov 2015, 04:35:06
043500,18.0544, 11 Nov 2015, 04:35:36
043530,18.0543, 11 Nov 2015, 04:36:06
043600,18.0541, 11 Nov 2015, 04:36:37
043630,18.0527, 11 Nov 2015, 04:37:07
043700,18.0526, 11 Nov 2015, 04:37:36
043730,18.0526, 11 Nov 2015, 04:38:06
043800,18.0517, 11 Nov 2015, 04:38:36
043830,18.0513, 11 Nov 2015, 04:39:07
043900,18.0517, 11 Nov 2015, 04:39:37
043930,18.0522, 11 Nov 2015, 04:40:06
044000,18.0541, 11 Nov 2015, 04:40:36
044030,18.0543, 11 Nov 2015, 04:41:06
044100,18.0543, 11 Nov 2015, 04:41:37
044130,18.0547, 11 Nov 2015, 04:42:06
044200,18.0545, 11 Nov 2015, 04:42:36
044230,18.0546, 11 Nov 2015, 04:43:06
044300,18.0539, 11 Nov 2015, 04:43:37
044330,18.0527, 11 Nov 2015, 04:44:06
044400,18.0539, 11 Nov 2015, 04:44:36
044430,18.0541, 11 Nov 2015, 04:45:06
044500,18.0558, 11 Nov 2015, 04:45:36
044530,18.0572, 11 Nov 2015, 04:46:07
044600,18.0576, 11 Nov 2015, 04:46:36
044630,18.0575, 11 Nov 2015, 04:47:06
044700,18.058, 11 Nov 2015, 04:47:36
044730,18.0577, 11 Nov 2015, 04:48:06
044800,18.0576, 11 Nov 2015, 04:48:37
044830,18.059, 11 Nov 2015, 04:49:06
044900,18.0602, 11 Nov 2015, 04:49:36
044930,18.0618, 11 Nov 2015, 04:50:06
045000,18.0624, 11 Nov 2015, 04:50:36
045030,18.0638, 11 Nov 2015, 04:51:07
045100,18.0645, 11 Nov 2015, 04:51:36
045130,18.0645, 11 Nov 2015, 04:52:06
045200,18.0643, 11 Nov 2015, 04:52:36
045230,18.063, 11 Nov 2015, 04:53:06
045300,18.0616, 11 Nov 2015, 04:53:36
045330,18.0619, 11 Nov 2015, 04:54:06
045400,18.0627, 11 Nov 2015, 04:54:36
045430,18.0615, 11 Nov 2015, 04:55:06
045500,18.0604, 11 Nov 2015, 04:55:36
045530,18.0584, 11 Nov 2015, 04:56:06
045600,18.058, 11 Nov 2015, 04:56:36
045630,18.0572, 11 Nov 2015, 04:57:06
045700,18.0576, 11 Nov 2015, 04:57:36
045730,18.0583, 11 Nov 2015, 04:58:06
045800,18.0591, 11 Nov 2015, 04:58:36
045830,18.0612, 11 Nov 2015, 04:59:06
045900,18.0659, 11 Nov 2015, 04:59:36
045930,18.0668, 11 Nov 2015, 05:00:06
050000,18.0673, 11 Nov 2015, 05:00:36
050030,18.0662, 11 Nov 2015, 05:01:06
050100,18.0657, 11 Nov 2015, 05:01:37
050130,18.0647, 11 Nov 2015, 05:02:07
050200,18.0658, 11 Nov 2015, 05:02:36
050230,18.067, 11 Nov 2015, 05:03:07
050300,18.0659, 11 Nov 2015, 05:03:37
050330,18.0647, 11 Nov 2015, 05:04:07
050400,18.0637, 11 Nov 2015, 05:04:37
050430,18.0633, 11 Nov 2015, 05:05:06
050500,18.0634, 11 Nov 2015, 05:05:37
050530,18.0641, 11 Nov 2015, 05:06:07
050600,18.0652, 11 Nov 2015, 05:06:37
050630,18.0654, 11 Nov 2015, 05:07:07
050700,18.0662, 11 Nov 2015, 05:07:36
050730,18.066, 11 Nov 2015, 05:08:07
050800,18.0651, 11 Nov 2015, 05:08:37